Grand Junction, CO

7:54 PM MDT on April 30, 2017 (GMT -0600)
Walker

Weather History for KGJT - March, 2012

Change the Weather History Date:

Monday, March 19, 2012

  Actual Average Record
Temperature  
Mean Temperature 34 °F 45 °F  
Max Temperature 42 °F 58 °F 81 °F (1907)
Min Temperature 26 °F 32 °F 14 °F (1906)
Degree Days  
Heating Degree Days 31 20  
Month to date heating degree days 377 427  
Since 1 July heating degree days 4476 4806  
Cooling Degree Days 0 0  
Month to date cooling degree days 0 0  
Year to date cooling degree days 0 0  
Moisture  
Dew Point 23 °F    
Average Humidity 61    
Maximum Humidity 81    
Minimum Humidity 40    
Precipitation  
Precipitation T in 0.03 in 0.30 in (1912)
Month to date precipitation 0.20 0.51  
Year to date precipitation 1.00 1.63  
Snow  
Snow T in 0.10 in 2.80 in (1942)
Month to date snowfall 2.8 1.6  
Since 1 July snowfall 8.2 17.1  
Snow Depth 0.00 in    
Sea Level Pressure  
Sea Level Pressure 29.69 in    
Wind  
Wind Speed 6 mph (North)    
Max Wind Speed 30 mph    
Max Gust Speed 36 mph    
Visibility 10 miles    
Events Snow    
T = Trace of Precipitation, MM = Missing Value Source: NWS Daily Summary

Daily Weather History Graph

Daily Weather History Graph

Search for Another Location

Airport or City:

Trip Planner

Search our weather history database for the weather conditions in past years. The results will help you decide how hot, cold, wet, or windy it might be!

Date:

Astronomy

Mar. 19, 2012 Rise Set
Actual Time 7:18 AM MDT 7:25 PM MDT
Civil Twilight 6:51 AM MDT 7:52 PM MDT
Nautical Twilight 6:20 AM MDT 8:23 PM MDT
Astronomical Twilight 5:48 AM MDT 8:55 PM MDT
Moon 5:30 AM MDT (3/19) 4:57 PM MDT (3/19)
Length of Visible Light 13h 00m
Length of Day
12h 07m
Waning Crescent, 8% of the Moon is Illuminated
Mar 19
Waning Crescent
Mar 22
New
Mar 30
First Quarter
Apr 6
Full
Apr 13
Last Quarter

Hourly Weather History & Observations

Time (MDT) Temp. Windchill Dew Point Humidity Pressure Visibility Wind Dir Wind Speed Gust Speed Precip Events Conditions
12:53 AM 32.0 °F 26.4 °F 24.1 °F 73% 29.59 in 10.0 mi ESE 5.8 mph - N/A   Mostly Cloudy
1:53 AM 33.1 °F - 25.0 °F 72% 29.61 in 10.0 mi Calm Calm - N/A   Overcast
2:53 AM 30.9 °F 26.2 °F 25.0 °F 79% 29.65 in 10.0 mi NNW 4.6 mph - N/A   Overcast
3:53 AM 30.9 °F - 23.0 °F 72% 29.63 in 10.0 mi Calm Calm - N/A   Scattered Clouds
4:53 AM 27.0 °F 19.5 °F 21.9 °F 81% 29.63 in 10.0 mi ENE 6.9 mph - N/A   Partly Cloudy
5:53 AM 28.0 °F 24.2 °F 19.9 °F 72% 29.63 in 10.0 mi ENE 3.5 mph - N/A   Mostly Cloudy
6:53 AM 28.0 °F 24.2 °F 21.0 °F 75% 29.64 in 10.0 mi SSW 3.5 mph - N/A   Mostly Cloudy
7:53 AM 28.9 °F - 23.0 °F 78% 29.68 in 10.0 mi Calm Calm - N/A   Overcast
8:53 AM 33.1 °F - 21.9 °F 64% 29.69 in 10.0 mi Calm Calm - N/A   Mostly Cloudy
9:53 AM 37.0 °F 34.5 °F 19.9 °F 50% 29.67 in 10.0 mi NNW 3.5 mph - N/A   Mostly Cloudy
10:53 AM 39.0 °F 36.8 °F 18.0 °F 43% 29.67 in 10.0 mi Variable 3.5 mph - N/A   Mostly Cloudy
11:53 AM 34.0 °F 23.0 °F 27.0 °F 75% 29.70 in 7.0 mi WNW 18.4 mph - 0.00 in Snow Light Snow
12:53 PM 39.9 °F 32.1 °F 21.9 °F 49% 29.67 in 10.0 mi NW 13.8 mph - 0.00 in   Mostly Cloudy
1:53 PM 41.0 °F 34.7 °F 19.9 °F 43% 29.63 in 10.0 mi NW 10.4 mph - N/A   Mostly Cloudy
2:53 PM 37.0 °F 25.4 °F 27.0 °F 67% 29.66 in 10.0 mi NNW 25.3 mph 35.7 mph 0.00 in   Overcast
3:53 PM 36.0 °F 26.0 °F 25.0 °F 64% 29.69 in 10.0 mi NNW 17.3 mph - 0.00 in   Overcast
4:53 PM 39.0 °F 34.0 °F 24.1 °F 55% 29.69 in 10.0 mi NW 6.9 mph - N/A   Mostly Cloudy
5:53 PM 41.0 °F - 23.0 °F 49% 29.69 in 10.0 mi Calm Calm - N/A   Scattered Clouds
6:53 PM 37.9 °F - 23.0 °F 55% 29.73 in 10.0 mi Calm Calm - N/A   Scattered Clouds
7:53 PM 36.0 °F - 21.9 °F 57% 29.76 in 10.0 mi Calm Calm - N/A   Scattered Clouds
8:53 PM 36.0 °F 31.1 °F 23.0 °F 59% 29.78 in 10.0 mi East 5.8 mph - N/A   Overcast
9:53 PM 34.0 °F 31.0 °F 24.1 °F 67% 29.81 in 10.0 mi SE 3.5 mph - N/A   Mostly Cloudy
10:53 PM 32.0 °F - 24.1 °F 73% 29.83 in 10.0 mi Calm Calm - N/A   Overcast
11:53 PM 33.1 °F - 25.0 °F 72% 29.86 in 10.0 mi Calm Calm - N/A   Overcast